TimeCDT,TemperatureF,Dew PointF,Humidity,Sea Level PressureIn,VisibilityMPH,Wind Direction,Wind SpeedMPH,Gust SpeedMPH,PrecipitationIn,Events,Conditions,WindDirDegrees,DateUTC
12:53 AM,73.0,62.1,68,29.70,10.0,SSE,17.3,26.5,N/A,,Clear,160,2013-05-30 05:53:00
1:53 AM,72.0,62.1,71,29.70,10.0,South,19.6,25.3,N/A,,Clear,170,2013-05-30 06:53:00
2:53 AM,71.1,62.1,73,29.70,10.0,South,16.1,26.5,N/A,,Clear,180,2013-05-30 07:53:00
3:53 AM,71.1,62.1,73,29.70,10.0,South,15.0,-,N/A,,Clear,180,2013-05-30 08:53:00
4:53 AM,70.0,62.1,76,29.70,10.0,South,13.8,-,N/A,,Scattered Clouds,170,2013-05-30 09:53:00
5:53 AM,69.1,62.1,78,29.69,10.0,SSE,16.1,-,N/A,,Clear,160,2013-05-30 10:53:00
6:53 AM,69.1,62.1,78,29.68,10.0,SSE,17.3,25.3,N/A,,Clear,160,2013-05-30 11:53:00
7:53 AM,70.0,62.1,76,29.70,10.0,South,15.0,-,N/A,,Scattered Clouds,170,2013-05-30 12:53:00
8:53 AM,71.1,63.0,75,29.72,10.0,South,17.3,26.5,N/A,,Clear,180,2013-05-30 13:53:00
9:53 AM,72.0,62.1,71,29.70,10.0,South,20.7,26.5,N/A,,Partly Cloudy,170,2013-05-30 14:53:00
10:53 AM,71.1,61.0,70,29.71,10.0,South,17.3,26.5,N/A,,Overcast,180,2013-05-30 15:53:00
11:53 AM,73.0,62.1,68,29.72,10.0,South,21.9,28.8,N/A,,Mostly Cloudy,190,2013-05-30 16:53:00
12:53 PM,75.9,62.1,62,29.69,10.0,SSW,21.9,36.8,N/A,,Partly Cloudy,210,2013-05-30 17:53:00
1:53 PM,73.9,63.0,68,29.68,10.0,South,18.4,23.0,N/A,,Mostly Cloudy,170,2013-05-30 18:53:00
2:23 PM,69.8,64.4,83,29.68,1.8,South,9.2,-,0.07,Rain,Rain,180,2013-05-30 19:23:00
2:31 PM,69.8,64.4,83,29.67,3.0,SSW,5.8,-,0.08,Rain,Light Rain,200,2013-05-30 19:31:00
2:53 PM,68.0,64.0,87,29.63,2.5,SSW,3.5,-,0.13,Rain,Light Rain,200,2013-05-30 19:53:00
3:01 PM,69.8,64.4,83,29.65,10.0,Variable,6.9,-,0.01,Rain,Light Rain,0,2013-05-30 20:01:00
3:06 PM,66.2,64.4,94,29.67,1.5,West,24.2,29.9,0.12,Rain,Light Rain,260,2013-05-30 20:06:00
3:16 PM,66.2,64.4,94,29.68,1.8,WSW,16.1,25.3,0.18,Rain,Light Rain,240,2013-05-30 20:16:00
3:20 PM,66.2,62.6,88,29.67,3.0,WSW,16.1,-,0.20,Rain,Heavy Rain,250,2013-05-30 20:20:00
3:27 PM,66.2,62.6,88,29.66,6.0,WSW,13.8,24.2,0.21,Rain-Thunderstorm,Light Rain,240,2013-05-30 20:27:00
3:42 PM,66.2,60.8,83,29.67,10.0,SSW,13.8,-,0.21,Rain,Light Rain,210,2013-05-30 20:42:00
3:53 PM,66.0,60.1,81,29.65,10.0,SW,15.0,23.0,0.21,Rain,Light Rain,220,2013-05-30 20:53:00
4:53 PM,69.1,61.0,75,29.58,10.0,South,13.8,20.7,0.01,,Scattered Clouds,170,2013-05-30 21:53:00
5:53 PM,68.0,59.0,73,29.66,10.0,South,16.1,25.3,N/A,,Clear,190,2013-05-30 22:53:00
6:53 PM,66.9,59.0,76,29.65,10.0,South,11.5,-,N/A,,Clear,190,2013-05-30 23:53:00
7:53 PM,66.0,59.0,78,29.64,10.0,SSW,8.1,-,N/A,,Clear,200,2013-05-31 00:53:00
8:53 PM,64.9,59.0,81,29.67,10.0,South,10.4,-,N/A,,Clear,170,2013-05-31 01:53:00
9:53 PM,64.0,59.0,84,29.69,10.0,South,10.4,-,N/A,,Clear,170,2013-05-31 02:53:00
10:26 PM,62.6,59.0,88,29.71,10.0,South,9.2,-,N/A,,Mostly Cloudy,170,2013-05-31 03:26:00
10:53 PM,63.0,59.0,87,29.71,10.0,South,10.4,-,N/A,,Mostly Cloudy,180,2013-05-31 03:53:00
11:08 PM,62.6,59.0,88,29.72,10.0,South,9.2,-,N/A,,Scattered Clouds,190,2013-05-31 04:08:00
11:53 PM,62.1,59.0,90,29.72,10.0,South,11.5,-,N/A,,Scattered Clouds,180,2013-05-31 04:53:00